When you browse on this site, cookies collect data to enhance your experience and personalize the content and advertising you see.
Visit our Privacy Policy to learn more. By continuing to use the site, you agree to this use of cookies and data.
  • In Deutschland
  • Länderverzeichnis
  • Für 7 Tage
  • Wassertemperatur
  • Wetterkarte
  • Widgets
  • user-avatar
    Anmelden

    Stündliche Wetter Townsville

    Heute, 28 Februar, Freitag

    Zeit Temperatur Niederschläge Wind Luftdruck Luftfeuchtigkeit
    00:00 +28°C° 0.1 mm 2 m/S 748 mmHg 85%
    01:00 +28°C° 0.1 mm 2 m/S 748 mmHg 86%
    02:00 +27°C° 0.1 mm 2 m/S 748 mmHg 85%
    03:00 +27°C° 0.1 mm 2 m/S 747 mmHg 85%
    04:00 +27°C° 0 mm 1 m/S 747 mmHg 85%
    05:00 +27°C° 0 mm 1 m/S 748 mmHg 85%
    06:00 +28°C° 0 mm 2 m/S 748 mmHg 85%
    07:00 +28°C° 0 mm 2 m/S 748 mmHg 84%
    08:00 +30°C° 0 mm 1 m/S 748 mmHg 77%
    09:00 +32°C° 0 mm 1 m/S 748 mmHg 69%
    10:00 +34°C° 0 mm 1 m/S 749 mmHg 63%
    11:00 +36°C° 0.1 mm 2 m/S 748 mmHg 58%
    12:00 +37°C° 0.1 mm 2 m/S 748 mmHg 53%
    13:00 +38°C° 0.1 mm 2 m/S 747 mmHg 48%
    14:00 +37°C° 0.1 mm 3 m/S 747 mmHg 53%
    15:00 +36°C° 0.1 mm 3 m/S 746 mmHg 58%
    16:00 +35°C° 0 mm 3 m/S 746 mmHg 65%
    17:00 +34°C° 0.2 mm 3 m/S 747 mmHg 71%
    18:00 +31°C° 0.2 mm 2 m/S 747 mmHg 77%
    19:00 +30°C° 0.2 mm 2 m/S 747 mmHg 84%
    20:00 +30°C° 0.1 mm 2 m/S 748 mmHg 84%
    21:00 +29°C° 0.1 mm 1 m/S 749 mmHg 85%
    22:00 +29°C° 0.1 mm 1 m/S 749 mmHg 85%
    23:00 +29°C° 0.2 mm 1 m/S 749 mmHg 86%

    Morgen, 29 Februar, Samstag

    Zeit Temperatur Niederschläge Wind Luftdruck Luftfeuchtigkeit
    00:00 +29°C° 0.2 mm 1 m/S 749 mmHg 86%
    01:00 +28°C° 0.2 mm 1 m/S 749 mmHg 86%
    02:00 +28°C° 0 mm 1 m/S 749 mmHg 86%
    03:00 +28°C° 0 mm 1 m/S 748 mmHg 86%
    04:00 +28°C° 0 mm 2 m/S 748 mmHg 87%
    05:00 +28°C° 0 mm 2 m/S 749 mmHg 86%
    06:00 +28°C° 0 mm 1 m/S 749 mmHg 86%
    07:00 +28°C° 0 mm 1 m/S 750 mmHg 85%
    08:00 +29°C° 0 mm 2 m/S 750 mmHg 78%
    09:00 +31°C° 0 mm 3 m/S 750 mmHg 71%
    10:00 +33°C° 0 mm 3 m/S 751 mmHg 64%
    11:00 +34°C° 0.1 mm 3 m/S 750 mmHg 62%
    12:00 +34°C° 0.1 mm 4 m/S 750 mmHg 60%
    13:00 +34°C° 0.1 mm 4 m/S 749 mmHg 58%
    14:00 +34°C° 0.4 mm 4 m/S 749 mmHg 61%
    15:00 +33°C° 0.4 mm 4 m/S 749 mmHg 64%
    16:00 +32°C° 0.4 mm 4 m/S 748 mmHg 68%
    17:00 +30°C° 0.3 mm 4 m/S 749 mmHg 73%
    18:00 +29°C° 0.3 mm 4 m/S 749 mmHg 78%
    19:00 +28°C° 0.3 mm 3 m/S 749 mmHg 84%
    20:00 +28°C° 0.2 mm 3 m/S 750 mmHg 84%
    21:00 +27°C° 0.2 mm 3 m/S 750 mmHg 85%
    22:00 +27°C° 0.2 mm 3 m/S 751 mmHg 86%
    23:00 +27°C° 0.1 mm 3 m/S 751 mmHg 86%

    übermorgen, 1 März, Sonntag

    Zeit Temperatur Niederschläge Wind Luftdruck Luftfeuchtigkeit
    00:00 +27°C° 0.1 mm 3 m/S 750 mmHg 86%
    01:00 +26°C° 0.1 mm 2 m/S 750 mmHg 86%
    02:00 +26°C° 0.1 mm 2 m/S 750 mmHg 86%
    03:00 +26°C° 0.1 mm 2 m/S 750 mmHg 87%
    04:00 +26°C° 0.1 mm 2 m/S 749 mmHg 87%
    05:00 +26°C° 0.1 mm 2 m/S 750 mmHg 87%
    06:00 +26°C° 0.1 mm 2 m/S 750 mmHg 87%
    07:00 +26°C° 0.1 mm 2 m/S 751 mmHg 87%
    08:00 +28°C° 0 mm 2 m/S 751 mmHg 79%
    09:00 +29°C° 0 mm 2 m/S 751 mmHg 72%
    10:00 +31°C° 0 mm 2 m/S 752 mmHg 65%
    11:00 +32°C° 0 mm 2 m/S 751 mmHg 62%
    12:00 +33°C° 0 mm 3 m/S 751 mmHg 59%
    13:00 +34°C° 0 mm 3 m/S 750 mmHg 56%
    14:00 +33°C° 0.2 mm 3 m/S 750 mmHg 59%
    15:00 +33°C° 0.2 mm 4 m/S 749 mmHg 62%
    16:00 +32°C° 0.2 mm 4 m/S 749 mmHg 66%
    17:00 +30°C° 0.6 mm 4 m/S 749 mmHg 71%
    18:00 +29°C° 0.6 mm 4 m/S 749 mmHg 77%
    19:00 +28°C° 0.6 mm 4 m/S 750 mmHg 82%
    20:00 +28°C° 0.3 mm 4 m/S 750 mmHg 83%
    21:00 +27°C° 0.3 mm 4 m/S 751 mmHg 84%
    22:00 +27°C° 0.3 mm 4 m/S 751 mmHg 84%
    23:00 +27°C° 0.4 mm 3 m/S 751 mmHg 85%

    2 März, Montag

    Zeit Temperatur Niederschläge Wind Luftdruck Luftfeuchtigkeit
    00:00 +26°C° 0.4 mm 3 m/S 751 mmHg 86%
    01:00 +26°C° 0.4 mm 3 m/S 751 mmHg 86%
    02:00 +26°C° 0.4 mm 3 m/S 750 mmHg 87%
    03:00 +26°C° 0.4 mm 2 m/S 750 mmHg 88%
    04:00 +25°C° 0.4 mm 2 m/S 750 mmHg 89%
    05:00 +26°C° 0.2 mm 2 m/S 750 mmHg 89%
    06:00 +26°C° 0.2 mm 2 m/S 750 mmHg 89%
    07:00 +26°C° 0.2 mm 3 m/S 751 mmHg 89%
    08:00 +28°C° 0 mm 2 m/S 751 mmHg 82%
    09:00 +30°C° 0 mm 2 m/S 751 mmHg 75%
    10:00 +31°C° 0 mm 2 m/S 751 mmHg 67%
    11:00 +32°C° 0.1 mm 2 m/S 751 mmHg 66%
    12:00 +33°C° 0.1 mm 3 m/S 750 mmHg 64%
    13:00 +34°C° 0.1 mm 3 m/S 750 mmHg 63%
    14:00 +33°C° 0.3 mm 3 m/S 749 mmHg 66%
    15:00 +33°C° 0.3 mm 4 m/S 749 mmHg 69%
    16:00 +32°C° 0.3 mm 4 m/S 749 mmHg 72%
    17:00 +30°C° 0.7 mm 4 m/S 749 mmHg 77%
    18:00 +29°C° 0.7 mm 4 m/S 749 mmHg 82%
    19:00 +28°C° 0.7 mm 3 m/S 750 mmHg 88%
    20:00 +28°C° 0.5 mm 3 m/S 750 mmHg 89%
    21:00 +27°C° 0.5 mm 3 m/S 751 mmHg 90%
    22:00 +27°C° 0.5 mm 3 m/S 751 mmHg 91%
    23:00 +27°C° 0.5 mm 3 m/S 751 mmHg 92%

    3 März, Dienstag

    Zeit Temperatur Niederschläge Wind Luftdruck Luftfeuchtigkeit
    00:00 +27°C° 0.5 mm 2 m/S 750 mmHg 93%
    01:00 +27°C° 0.5 mm 2 m/S 750 mmHg 93%
    02:00 +26°C° 0.7 mm 2 m/S 750 mmHg 93%
    03:00 +26°C° 0.7 mm 2 m/S 749 mmHg 93%
    04:00 +26°C° 0.7 mm 2 m/S 749 mmHg 93%
    05:00 +26°C° 0.3 mm 2 m/S 750 mmHg 92%
    06:00 +27°C° 0.3 mm 2 m/S 750 mmHg 91%
    07:00 +27°C° 0.3 mm 2 m/S 750 mmHg 90%
    08:00 +28°C° 0 mm 2 m/S 750 mmHg 85%
    09:00 +29°C° 0 mm 2 m/S 750 mmHg 79%
    10:00 +31°C° 0 mm 2 m/S 751 mmHg 74%
    11:00 +31°C° 0.1 mm 2 m/S 750 mmHg 72%
    12:00 +32°C° 0.1 mm 2 m/S 750 mmHg 69%
    13:00 +32°C° 0.1 mm 2 m/S 749 mmHg 67%
    14:00 +32°C° 0.1 mm 2 m/S 749 mmHg 68%
    15:00 +32°C° 0.1 mm 2 m/S 748 mmHg 69%
    16:00 +31°C° 0.1 mm 2 m/S 748 mmHg 70%
    17:00 +30°C° 0 mm 2 m/S 748 mmHg 75%
    18:00 +29°C° 0 mm 2 m/S 749 mmHg 80%
    19:00 +28°C° 0 mm 2 m/S 749 mmHg 84%
    20:00 +28°C° 0 mm 1 m/S 750 mmHg 86%
    21:00 +28°C° 0 mm 1 m/S 750 mmHg 87%
    22:00 +27°C° 0 mm 1 m/S 750 mmHg 89%
    23:00 +27°C° 0 mm 1 m/S 750 mmHg 89%

    4 März, Mittwoch

    Zeit Temperatur Niederschläge Wind Luftdruck Luftfeuchtigkeit
    00:00 +27°C° 0 mm 1 m/S 750 mmHg 90%
    01:00 +27°C° 0 mm 1 m/S 749 mmHg 90%
    02:00 +27°C° 0 mm 1 m/S 749 mmHg 91%
    03:00 +27°C° 0 mm 1 m/S 749 mmHg 91%
    04:00 +26°C° 0 mm 1 m/S 749 mmHg 91%
    05:00 +27°C° 0 mm 1 m/S 749 mmHg 90%
    06:00 +25°C° 0 mm 0 m/S 749 mmHg 89%
    07:00 +25°C° 0 mm 0 m/S 749 mmHg 88%
    08:00 +29°C° 0 mm 1 m/S 750 mmHg 81%
    09:00 +30°C° 0 mm 1 m/S 750 mmHg 74%
    10:00 +32°C° 0 mm 1 m/S 750 mmHg 67%
    11:00 +32°C° 0 mm 2 m/S 749 mmHg 66%
    12:00 +32°C° 0 mm 2 m/S 749 mmHg 65%
    13:00 +33°C° 0 mm 3 m/S 748 mmHg 64%
    14:00 +33°C° 0 mm 3 m/S 748 mmHg 65%
    15:00 +33°C° 0 mm 3 m/S 747 mmHg 66%
    16:00 +33°C° 0 mm 3 m/S 747 mmHg 67%
    17:00 +31°C° 0 mm 2 m/S 747 mmHg 71%
    18:00 +30°C° 0 mm 2 m/S 748 mmHg 75%
    19:00 +29°C° 0 mm 2 m/S 748 mmHg 79%
    20:00 +28°C° 0 mm 1 m/S 749 mmHg 80%
    21:00 +28°C° 0 mm 1 m/S 749 mmHg 81%
    22:00 +28°C° 0 mm 1 m/S 750 mmHg 82%
    23:00 +28°C° 0.2 mm 1 m/S 749 mmHg 83%
    Mehr zeigen